STARLINK-1981 (47579 NORAD) Tracking and Keplerian Element Data

This shows tracking and keplerian element data for the satellite.

Feedback or suggestion? Click here.




ElementValue
Catalog47579
NameSTARLINK-1981
Epoch Orbit177
Epoch Day105.91667824
Epoch Year2021
RAAN137.9802
Inclination53.0513
Eccentricity0.0003884
Argument of Perigee2.0556
Mean Anonmoly80.9916
Mean Motion15.62699218
Decay Rate0.00063273
L11 47579U 21009AH 21105.91667824 .00063273 00000-0 69277-3 0 9991
L22 47579 53.0513 137.9802 0003884 2.0556 80.9916 15.62699218 1779

Live tracking and technical data element details for STARLINK-1981 (NORAD 47579). STARLINK-1981 can be tracked NOW for your location showing map with azimuth and elevation plus other details from your city location.

Track the satellite on the map from your city or location and see movement details for azimuth, elevation, latitude, longitude, range, height, and movement on the map or in text.







IsCatalogInMostPopularTable: catalog: 47579, numindb: 17
Update: records affected: 1



GetName: 47579 STARLINK-1981

Hit Count: updated at: Fri, 16 Apr 2021 11:39:32 GMT